Location: ????????
(54.6123°N, 39.2099°E)
Time: 17:50:56
(UTC+00:00)

Meteor 1-18 Rocket - Pass Details

Date: 19 May 2025
Orbit: 836 x 907 km, 81.2° (Epoch: 20 June)

Event Time Altitude Azimuth Distance (km) Brightness Sun altitude
Exits shadow 21:32:12 22° 201° (SSW) 1,853 5.4 -15.4°
Maximum altitude 21:36:08 77° 285° (WNW) 921 4.4 -15.3°
Drops below altitude 10° 21:42:05 10° 12° (NNE) 2,594 8.1 -15.3°
Sets 21:44:35 0° 14° (NNE) 3,544 9.2 -15.2°
